San Angelo, TX

12:44 AM CDT on September 21, 2017 (GMT -0500)
San Angelo Regional-Mathis

Weather History for KSJT - October, 2013

Change the Weather History Date:

Wednesday, October 2, 2013

  Actual Average Record
Temperature  
Mean Temperature 80 °F 70 °F  
Max Temperature 88 °F 83 °F 100 °F (1951)
Min Temperature 71 °F 58 °F 37 °F (1935)
Degree Days  
Heating Degree Days 0 1  
Month to date heating degree days 0 2  
Since 1 July heating degree days 0 11  
Cooling Degree Days 15 6  
Month to date cooling degree days 28 13  
Year to date cooling degree days 2742 2378  
Growing Degree Days 30 (Base 50)    
Moisture  
Dew Point 66 °F    
Average Humidity 70    
Maximum Humidity 93    
Minimum Humidity 46    
Precipitation  
Precipitation 0.00 in 0.08 in 2.36 in (1927)
Month to date precipitation 0.00 0.17  
Year to date precipitation 16.38 16.70  
Snow  
Snow 0.00 in 0.00 in 0.00 in (2002)
Month to date snowfall 0.0 0.0  
Since 1 July snowfall 0.0 0.0  
Snow Depth 0.00 in    
Sea Level Pressure  
Sea Level Pressure 29.85 in    
Wind  
Wind Speed 9 mph (South)    
Max Wind Speed 17 mph    
Max Gust Speed 24 mph    
Visibility 10 miles    
Events      
T = Trace of Precipitation, MM = Missing Value Source: NWS Daily Summary

Daily Weather History Graph

Daily Weather History Graph

Search for Another Location

Airport or City:

Trip Planner

Search our weather history database for the weather conditions in past years. The results will help you decide how hot, cold, wet, or windy it might be!

Date:

Astronomy

Oct. 02, 2013 Rise Set
Actual Time 7:36 AM CDT 7:25 PM CDT
Civil Twilight 7:12 AM CDT 7:49 PM CDT
Nautical Twilight 6:44 AM CDT 8:17 PM CDT
Astronomical Twilight 6:15 AM CDT 8:45 PM CDT
Moon 5:18 AM CDT (10/2) 5:57 PM CDT (10/2)
Length of Visible Light 12h 37m
Length of Day
11h 48m
Waning Crescent, 6% of the Moon is Illuminated
Oct 2
Waning Crescent
Oct 4
New
Oct 11
First Quarter
Oct 18
Full
Oct 26
Last Quarter

Hourly Weather History & Observations

Time (CDT) Temp. Heat Index Dew Point Humidity Pressure Visibility Wind Dir Wind Speed Gust Speed Precip Events Conditions
12:51 AM 75.9 °F - 64.0 °F 67% 29.84 in 10.0 mi SSE 9.2 mph - N/A   Clear
1:51 AM 75.0 °F - 64.0 °F 69% 29.83 in 10.0 mi SSE 9.2 mph - N/A   Clear
2:51 AM 73.9 °F - 66.0 °F 76% 29.83 in 10.0 mi South 10.4 mph - N/A   Clear
3:51 AM 72.0 °F - 68.0 °F 87% 29.83 in 10.0 mi SSE 6.9 mph - N/A   Clear
4:51 AM 72.0 °F - 68.0 °F 87% 29.83 in 10.0 mi SSE 4.6 mph - N/A   Clear
5:51 AM 71.1 °F - 68.0 °F 90% 29.83 in 10.0 mi South 6.9 mph - N/A   Clear
6:08 AM 71.6 °F - 68.0 °F 88% 29.91 in 10.0 mi South 6.9 mph - N/A   Mostly Cloudy
6:51 AM 72.0 °F - 68.0 °F 87% 29.85 in 10.0 mi South 5.8 mph - N/A   Overcast
7:51 AM 72.0 °F - 69.1 °F 91% 29.87 in 10.0 mi SSE 4.6 mph - N/A   Overcast
7:58 AM 71.6 °F - 69.8 °F 94% 29.93 in 10.0 mi SSE 4.6 mph - N/A   Overcast
8:51 AM 73.0 °F - 69.1 °F 87% 29.90 in 10.0 mi Calm Calm - N/A   Overcast
9:51 AM 75.9 °F - 69.1 °F 79% 29.90 in 10.0 mi South 10.4 mph - N/A   Overcast
10:16 AM 75.2 °F - 68.0 °F 78% 29.96 in 10.0 mi South 9.2 mph - N/A   Scattered Clouds
10:41 AM 78.8 °F - 68.0 °F 69% 29.97 in 10.0 mi South 10.4 mph - N/A   Mostly Cloudy
10:51 AM 78.1 °F - 68.0 °F 71% 29.90 in 10.0 mi South 15.0 mph - N/A   Scattered Clouds
11:51 AM 82.0 °F 84.5 °F 66.9 °F 60% 29.90 in 10.0 mi South 13.8 mph 20.7 mph N/A   Partly Cloudy
12:51 PM 84.0 °F 86.5 °F 66.9 °F 56% 29.87 in 10.0 mi South 11.5 mph 21.9 mph N/A   Scattered Clouds
1:51 PM 86.0 °F 88.8 °F 66.9 °F 53% 29.83 in 10.0 mi South 10.4 mph 17.3 mph N/A   Clear
2:51 PM 87.1 °F 89.2 °F 66.0 °F 49% 29.80 in 10.0 mi South 13.8 mph 19.6 mph N/A   Clear
3:51 PM 88.0 °F 90.3 °F 66.0 °F 48% 29.79 in 10.0 mi SSE 11.5 mph 18.4 mph N/A   Clear
4:51 PM 88.0 °F 89.3 °F 64.0 °F 45% 29.78 in 10.0 mi South 10.4 mph - N/A   Clear
5:51 PM 88.0 °F 89.3 °F 64.0 °F 45% 29.77 in 10.0 mi South 13.8 mph - N/A   Clear
6:51 PM 84.9 °F 86.1 °F 64.0 °F 49% 29.79 in 10.0 mi SSE 8.1 mph - N/A   Clear
7:51 PM 80.1 °F 81.9 °F 64.9 °F 60% 29.80 in 10.0 mi SSE 6.9 mph - N/A   Clear
8:51 PM 80.1 °F 81.5 °F 63.0 °F 56% 29.81 in 10.0 mi South 8.1 mph - N/A   Clear
9:51 PM 78.1 °F - 63.0 °F 60% 29.84 in 10.0 mi South 6.9 mph - N/A   Clear
10:51 PM 75.9 °F - 64.0 °F 67% 29.84 in 10.0 mi South 8.1 mph - N/A   Clear
11:51 PM 75.0 °F - 64.0 °F 69% 29.84 in 10.0 mi SSE 6.9 mph - N/A   Clear